Theta_e
320 320 323 322 320 318 317 318 321 321 323 328 331 328 322 322 324 328 327 326 328 327 324 324 322 315 311 310 309 307 306 305 306 305 305 304 303 302 302 302 302 302 302 303 304 304 304 308 313 318 320 321 321 321 321 322 323 323 324 324 324 325 324 323 322 323 322 321 321 322 321 321 319 317 319 320 318 316 315 314 315 315 314 313 312 312 312
321 320 322 322 320 320 318 316 316 317 321 326 326 324 323 323 324 326 326 325 326 325 322 320 316 311 308 307 306 305 304 303 303 303 303 302 302 302 302 302 302 302 302 303 303 303 303 304 307 314 318 320 320 321 322 322 322 321 322 322 322 322 322 322 321 321 321 320 321 321 320 319 315 312 314 318 318 316 315 314 314 313 314 314 314 314 313
322 320 321 321 319 320 321 319 316 316 320 326 326 324 324 326 326 325 325 325 323 319 316 313 310 308 307 306 306 305 304 303 302 302 302 302 302 302 302 302 302 302 302 303 303 303 303 302 303 307 310 313 314 316 317 318 319 320 321 320 320 321 321 321 320 320 320 320 320 319 319 318 316 314 315 318 318 317 317 316 315 314 314 315 315 314 314
323 318 319 321 321 321 324 322 316 314 318 322 323 322 323 325 326 326 326 324 319 314 311 309 308 307 306 306 307 305 303 302 302 302 302 302 302 302 302 302 302 302 301 302 303 303 303 302 302 303 304 305 306 307 308 309 311 314 315 315 316 319 320 321 320 320 320 320 320 320 319 319 318 318 319 320 320 320 321 321 320 318 316 316 315 314 314
323 318 317 320 323 324 324 318 312 311 314 317 319 320 320 322 324 326 326 322 315 311 310 309 308 307 306 307 307 306 304 302 302 302 301 302 302 302 302 302 301 301 301 302 302 303 303 302 302 302 302 303 303 303 303 303 304 306 306 307 309 312 314 316 318 319 320 320 319 319 320 320 319 320 321 321 321 321 321 321 321 320 318 317 316 315 315
322 318 316 318 321 322 319 313 310 311 312 314 317 317 316 317 319 319 317 314 311 310 309 309 308 307 306 306 306 306 305 304 303 302 301 302 302 302 302 302 302 301 302 302 302 303 303 303 303 302 301 301 301 301 302 302 302 302 302 303 304 304 305 307 309 311 313 313 312 313 315 316 317 317 318 319 319 319 319 320 321 321 321 320 320 319 319
321 318 318 320 321 319 315 313 311 310 310 312 315 314 312 313 314 313 312 311 309 308 307 306 305 305 304 304 304 304 304 304 304 303 302 302 302 302 302 302 302 302 301 301 302 303 303 304 304 304 303 302 301 301 301 301 301 301 301 301 301 301 302 302 302 303 304 304 304 305 306 308 309 309 310 311 311 312 313 316 317 318 319 320 320 321 321
318 319 321 321 319 316 314 314 311 309 311 313 314 316 314 311 311 311 310 309 307 306 304 303 302 302 302 303 303 302 301 302 303 302 301 301 301 301 301 301 301 301 301 301 302 302 303 304 304 304 304 304 303 302 301 301 300 300 301 301 301 301 301 300 301 301 301 301 302 302 302 303 303 303 304 304 304 305 306 308 310 312 314 315 316 319 320
317 320 319 317 317 316 315 314 311 309 311 311 312 315 314 311 310 309 307 307 306 304 304 302 301 302 303 303 303 302 300 300 300 300 300 301 301 301 301 301 301 301 301 302 302 302 303 304 304 304 304 304 304 303 302 302 301 300 300 300 300 300 300 300 300 300 300 301 301 300 301 301 301 301 301 301 301 302 303 303 304 305 306 307 309 312 316
317 320 319 318 320 318 314 314 312 310 311 310 308 312 314 311 308 307 306 306 305 304 305 303 303 306 307 303 302 301 300 299 299 299 299 300 300 301 301 301 301 301 301 302 302 302 303 302 303 304 304 302 302 302 301 301 301 301 300 300 300 300 300 300 300 300 300 300 300 300 300 300 300 300 300 300 300 300 300 301 301 301 302 302 303 305 308
318 319 319 319 319 315 311 311 310 309 311 310 309 314 316 311 307 306 306 306 306 306 306 304 305 310 309 303 300 301 300 300 300 300 300 300 301 301 301 301 301 301 301 301 301 301 301 301 301 301 301 301 301 300 300 300 300 300 299 299 299 299 299 299 299 299 299 299 299 299 299 299 300 299 299 300 299 300 300 300 300 300 300 301 301 301 302
316 316 315 315 314 311 308 307 306 306 309 310 313 319 317 310 306 306 305 305 306 306 305 305 308 310 306 301 301 301 300 300 300 299 300 300 301 302 301 301 300 300 301 301 301 301 301 301 301 300 300 300 300 300 300 300 299 299 299 299 299 299 299 299 299 299 299 299 299 299 299 299 299 299 299 299 299 299 300 299 299 299 299 300 300 300 300
313 313 314 313 312 309 306 305 305 305 308 312 317 319 313 307 306 306 304 305 305 304 305 307 307 306 303 301 301 301 299 298 298 298 298 299 300 301 301 301 300 301 300 301 301 301 300 300 300 300 300 300 299 299 299 299 299 299 299 299 299 299 299 299 299 299 299 299 298 298 298 299 299 299 299 299 299 299 299 299 299 299 299 299 299 299 299
311 311 312 313 312 308 303 303 304 307 311 315 314 310 307 306 306 305 305 305 304 303 304 304 303 301 300 300 300 300 299 299 298 297 297 298 299 300 300 301 301 301 300 301 300 300 300 300 300 300 299 299 299 299 299 298 298 298 299 298 298 298 298 298 298 298 298 298 298 298 298 298 298 298 298 298 298 298 298 299 299 299 299 298 299 299 299
311 312 312 314 313 308 303 304 308 310 312 312 308 305 305 305 304 305 305 304 302 301 301 301 300 300 300 300 300 300 300 299 298 297 298 298 298 298 299 300 300 301 301 300 300 300 299 299 299 299 299 299 298 298 298 298 298 298 298 298 298 298 298 297 297 297 297 297 297 297 297 297 297 297 297 297 298 298 298 298 298 298 298 298 298 298 298
311 313 311 310 308 305 302 304 307 306 305 305 305 304 304 304 303 303 303 303 303 301 300 299 299 299 300 301 301 301 301 299 298 297 298 298 298 298 299 300 300 301 301 300 299 299 299 299 299 299 299 298 298 298 298 298 298 297 297 297 297 297 297 297 297 297 297 297 297 296 296 296 296 296 296 296 296 296 296 296 297 297 297 297 297 297 297
306 309 308 305 305 303 301 302 303 302 302 303 303 302 303 304 304 302 302 303 304 303 301 300 299 299 300 301 301 301 301 300 298 297 298 298 298 298 298 300 300 300 300 300 299 299 299 299 299 299 299 298 298 298 297 297 297 297 296 296 296 296 296 297 297 297 296 296 296 296 295 295 295 295 295 295 295 295 295 296 296 296 296 296 296 296 296
304 306 305 303 303 302 301 301 301 301 302 302 301 301 301 302 302 302 302 303 303 302 301 301 300 299 300 301 301 301 301 299 298 298 298 298 298 298 298 299 299 300 299 299 299 299 298 299 299 298 299 298 298 298 297 297 296 296 296 296 296 295 296 296 296 296 296 295 295 295 295 295 295 295 295 295 295 295 295 295 295 295 295 295 295 295 295
306 307 304 302 303 302 301 301 301 301 301 301 301 301 301 301 302 302 302 303 302 301 300 300 300 299 299 300 299 300 300 299 297 297 298 298 298 298 298 298 299 299 299 299 299 298 298 298 298 298 298 298 298 297 297 297 296 296 297 297 296 296 295 295 295 295 295 295 296 296 296 295 295 295 295 295 295 295 295 295 295 295 295 294 294 294 294
307 306 303 302 303 302 302 302 301 301 301 301 300 301 301 301 302 301 301 302 302 302 302 301 300 300 299 299 300 300 299 297 296 297 298 298 298 298 297 298 299 299 299 299 298 298 298 298 298 298 298 298 298 297 297 297 296 297 297 297 297 296 296 295 295 295 296 296 296 296 295 295 294 294 294 294 294 294 295 295 295 295 294 294 294 294 294
304 303 302 302 303 303 302 302 301 301 301 300 301 301 301 300 301 301 300 300 299 299 299 298 299 300 299 297 298 299 297 295 295 297 297 297 297 297 297 298 299 298 299 299 298 298 298 297 298 298 298 298 298 297 297 297 297 297 297 297 297 297 296 295 295 296 296 296 296 296 295 294 294 293 293 293 293 293 294 294 294 294 294 294 294 294 293
306 305 303 304 306 305 302 302 301 301 301 301 301 301 301 301 301 301 300 298 297 296 297 296 297 299 299 296 295 296 295 294 295 297 297 297 297 297 297 298 298 298 298 298 298 298 297 297 298 298 298 298 298 298 297 297 297 297 297 297 296 296 296 295 296 296 296 295 295 295 294 294 293 293 293 293 292 293 293 294 294 294 294 294 294 293 293
308 308 304 303 305 305 302 302 302 301 301 302 302 301 301 301 300 299 300 300 298 297 297 296 297 298 297 296 295 294 294 295 296 296 297 297 297 297 298 298 298 298 298 298 298 298 297 297 298 298 298 298 298 298 297 297 297 297 297 296 296 296 295 295 296 296 295 294 293 294 294 294 293 293 293 292 292 293 293 293 293 293 293 293 293 293 293
305 306 305 303 303 304 302 303 303 300 299 301 303 303 301 300 298 298 298 299 299 299 298 296 296 297 296 296 296 295 294 295 296 296 296 297 297 297 298 298 298 298 298 298 298 298 297 297 298 298 298 298 298 298 297 297 297 298 297 296 296 295 295 296 296 296 295 294 293 293 294 293 294 293 293 292 292 293 292 292 293 293 293 293 294 294 295
305 304 304 302 302 304 302 301 301 299 297 298 302 301 299 297 296 296 296 295 296 297 297 295 295 297 297 296 296 295 295 295 296 296 297 297 297 297 297 297 298 298 298 298 298 297 297 297 298 298 298 298 298 298 297 297 298 297 296 296 296 295 295 295 296 296 296 295 294 294 293 293 294 294 293 293 293 293 293 293 293 293 294 294 294 295 295
302 301 301 300 300 301 301 299 300 300 297 297 299 298 296 296 296 296 296 295 295 296 296 295 295 296 297 297 296 295 295 296 296 296 296 297 296 297 297 297 297 297 297 298 298 297 297 297 297 298 298 298 298 298 297 298 298 297 296 296 296 295 295 296 296 296 295 295 294 294 294 294 294 294 293 293 293 293 293 293 293 294 294 295 295 295 295
300 300 301 301 299 300 300 300 300 299 296 296 297 296 295 296 296 295 295 295 295 296 297 296 295 296 296 296 296 295 295 296 296 296 296 296 296 296 297 296 296 297 297 297 297 297 297 297 297 298 298 298 298 298 297 298 298 297 296 296 296 296 296 296 296 296 295 294 294 294 294 294 294 293 293 293 293 293 293 293 293 294 294 295 295 295 295
301 300 301 302 302 301 300 299 298 297 295 295 296 295 295 295 295 295 296 296 294 295 295 295 295 295 295 295 295 295 295 295 295 295 296 296 296 296 296 296 296 296 296 296 296 296 296 296 297 297 298 298 297 297 298 298 298 297 297 296 296 296 296 296 296 295 294 293 293 293 293 293 293 294 294 293 293 293 293 294 294 293 294 295 295 295 295
303 302 303 303 300 298 298 298 298 298 297 296 295 294 294 296 298 299 298 296 294 294 294 295 294 295 295 295 295 294 294 294 295 295 295 296 295 296 295 295 295 295 295 295 295 295 295 296 296 297 298 297 297 298 298 298 298 297 297 297 297 296 295 295 296 295 293 293 293 294 294 294 294 294 294 294 294 294 294 294 294 293 294 294 295 294 295
300 301 302 301 297 297 299 300 301 301 299 296 295 295 294 295 300 302 299 294 293 294 294 294 294 294 295 295 294 294 294 294 295 295 295 295 295 295 295 294 294 294 294 294 294 294 294 295 296 297 297 297 297 297 298 298 297 297 297 297 297 296 295 295 295 294 293 293 294 294 294 294 294 295 294 294 295 294 294 294 293 293 294 294 294 294 294
299 300 301 300 298 299 301 301 302 303 300 296 297 299 297 296 301 303 299 294 293 293 293 294 293 294 294 294 294 295 295 295 295 295 294 294 294 294 294 294 293 293 293 293 293 293 294 295 295 296 297 297 297 297 297 297 297 297 297 297 296 296 296 295 294 294 294 294 294 294 294 295 295 295 295 295 295 294 294 294 293 293 294 294 293 293 294
300 298 299 300 301 301 301 301 301 302 301 298 299 300 299 298 300 302 298 295 293 293 292 293 293 294 295 295 294 294 294 294 293 293 292 292 292 292 293 293 292 292 292 292 293 293 293 295 296 296 297 297 297 296 297 297 298 297 297 297 296 296 295 294 293 293 294 294 294 294 294 295 295 295 295 295 295 294 293 293 294 294 294 293 293 293 294
301 300 299 301 301 300 300 300 301 301 301 299 297 295 294 294 295 295 294 293 292 292 292 293 294 295 295 294 293 293 292 291 290 290 290 290 291 291 292 292 292 292 292 292 292 292 293 295 296 297 297 297 297 296 297 297 298 297 297 296 296 296 295 294 293 293 294 294 294 294 294 294 294 296 296 295 294 294 293 293 294 294 293 292 292 293 294
301 302 301 299 299 299 298 299 301 302 301 298 294 292 292 293 294 294 293 292 292 293 294 295 295 294 294 293 292 291 290 289 288 288 288 289 290 292 292 292 292 291 291 291 291 292 294 295 296 297 297 297 297 296 296 297 297 297 297 296 296 296 295 294 293 293 294 294 294 295 295 294 295 296 296 295 294 294 293 294 294 293 293 292 293 293 294
296 297 297 296 297 297 297 297 299 301 301 300 298 295 294 294 294 294 294 293 294 294 295 295 295 294 293 292 291 290 289 289 288 288 287 288 290 292 292 291 291 291 291 291 291 293 294 296 296 297 297 297 297 296 296 297 297 297 296 296 296 295 294 294 293 293 294 294 294 294 294 294 295 295 295 294 294 294 293 293 293 293 293 292 293 293 293
295 294 294 294 295 296 295 295 295 295 296 297 297 295 295 295 295 295 294 294 295 295 295 294 294 293 292 292 291 290 290 289 289 288 287 288 289 290 290 290 291 291 290 291 292 294 295 296 297 297 297 297 296 296 296 296 297 297 296 296 296 295 294 294 294 293 294 293 293 293 294 294 295 295 294 294 294 293 293 293 293 293 293 292 292 292 293
295 294 294 294 295 295 295 295 296 295 295 295 294 295 296 296 296 296 295 295 295 294 294 294 293 292 292 292 292 291 291 290 288 288 288 288 288 288 289 290 291 290 290 291 293 295 296 296 296 296 296 295 296 296 296 296 296 296 296 296 296 295 294 294 293 293 293 293 293 293 293 294 294 295 294 294 294 293 293 293 293 293 293 292 292 292 292
295 296 296 295 296 296 296 296 296 296 296 296 295 296 296 296 296 296 295 295 295 294 294 294 293 293 293 293 292 291 291 290 289 288 288 288 288 288 289 289 290 290 290 291 292 294 296 296 295 294 294 295 296 296 296 296 296 296 296 296 295 294 294 293 293 293 293 293 293 293 293 293 294 294 294 294 293 293 293 292 292 293 292 292 292 292 291
296 296 296 296 296 296 296 296 296 296 296 295 296 296 296 296 296 296 295 295 295 295 294 294 293 293 292 292 292 292 292 291 290 289 289 289 289 289 289 289 289 289 290 291 292 293 295 295 294 294 295 296 296 296 296 296 296 296 296 295 295 294 294 293 293 292 292 293 293 293 293 293 293 294 294 294 293 293 293 292 292 292 292 292 291 291 291
297 297 296 297 297 296 296 296 296 296 296 296 295 295 296 296 296 296 295 295 295 294 294 294 293 292 292 293 293 293 292 292 292 290 289 289 289 288 289 290 290 289 290 291 292 293 293 293 293 294 296 296 295 295 295 295 295 295 296 295 295 294 294 293 292 292 292 292 292 292 292 293 293 293 294 293 293 293 292 292 292 292 292 292 291 291 291
297 297 297 297 296 296 297 297 297 297 297 296 296 296 296 296 296 296 295 295 295 295 294 294 293 293 293 293 293 293 293 292 292 292 290 290 289 288 288 289 290 290 290 291 293 293 293 293 293 294 295 295 294 294 294 294 295 295 295 295 295 294 294 293 292 292 292 292 292 292 292 292 293 293 293 293 293 292 292 292 292 292 292 292 291 290 290
297 297 296 297 296 296 296 296 296 297 297 297 297 297 296 296 296 296 296 296 295 295 294 294 294 294 294 294 294 293 293 292 292 292 292 292 291 290 289 289 290 291 291 292 292 292 293 293 293 292 293 294 294 293 293 294 294 294 295 295 295 294 294 293 292 291 292 292 292 292 292 292 292 292 293 293 293 292 292 292 292 292 292 292 291 291 291
297 297 296 297 296 296 297 296 296 296 296 296 297 297 297 297 296 296 296 296 296 295 295 294 294 294 294 293 293 293 293 292 292 292 292 293 293 292 291 291 291 292 293 293 292 292 293 294 293 291 291 292 293 293 293 294 294 294 294 295 295 294 294 293 292 291 291 291 291 291 292 292 293 293 293 293 293 292 292 291 291 291 292 292 292 292 291
296 297 297 297 297 297 297 296 296 296 296 296 297 297 297 297 297 296 296 296 296 295 295 295 294 294 294 294 293 293 293 292 291 291 292 292 292 292 292 292 291 292 293 293 292 293 293 293 292 291 292 292 292 292 292 294 294 294 294 294 295 294 293 293 292 291 291 291 291 291 292 292 293 293 293 293 292 292 291 291 291 291 291 291 291 291 291
296 297 297 297 297 297 297 297 297 297 297 297 297 297 297 297 297 296 296 296 296 296 296 295 295 295 295 294 294 294 293 292 291 291 291 291 291 291 292 292 292 292 292 292 292 292 292 291 291 292 293 293 292 292 292 293 294 294 294 294 295 295 294 292 292 291 291 291 291 291 292 292 293 293 293 293 292 292 292 291 291 291 291 291 291 291 291
297 297 297 297 297 297 297 297 297 297 297 297 297 297 297 297 296 297 297 296 296 296 296 296 296 296 295 295 295 294 293 292 292 292 291 291 291 291 291 291 291 292 292 291 291 292 291 290 290 292 293 293 292 292 292 293 294 294 294 295 295 295 294 293 292 292 291 291 291 291 291 292 292 292 292 292 292 292 291 291 291 291 291 291 290 290 290
297 297 297 297 297 297 297 297 297 297 297 296 296 296 297 297 297 297 297 296 296 296 296 296 296 296 296 296 295 294 293 293 292 292 292 291 291 291 291 291 291 291 291 292 292 292 290 289 290 291 292 292 291 291 292 293 294 294 295 295 295 294 294 293 292 292 291 291 291 291 291 291 291 291 291 291 291 291 291 291 291 291 291 290 290 290 289
297 297 297 297 296 297 297 297 297 296 296 296 296 296 296 296 296 296 296 296 296 296 296 296 296 296 296 296 296 296 295 293 293 293 293 292 291 291 291 291 290 290 291 291 291 291 289 288 290 291 291 290 290 291 293 294 294 294 295 295 295 294 294 293 292 292 291 291 291 290 290 290 290 290 290 290 290 290 290 291 291 291 291 290 290 290 289
297 297 297 297 297 296 297 297 296 296 296 296 296 297 296 296 296 296 297 297 296 296 296 296 296 296 296 296 296 296 295 294 293 293 293 292 292 291 291 291 291 290 290 290 290 290 289 288 289 289 288 288 289 292 293 293 293 294 294 295 295 295 294 293 293 292 291 291 291 291 290 291 291 290 290 290 290 290 290 290 290 290 290 290 290 290 289
297 298 298 297 297 296 296 296 296 296 296 296 296 296 296 296 297 297 297 297 297 296 296 296 296 296 296 296 296 296 295 294 294 293 293 292 292 291 291 291 291 290 290 290 289 288 288 288 287 287 287 288 290 292 293 292 292 292 292 293 294 294 294 293 293 292 291 291 291 291 291 291 291 291 291 290 290 290 290 290 290 290 290 290 290 289 289
297 297 297 297 297 297 296 296 296 296 295 295 295 295 295 296 296 296 297 297 296 296 296 296 296 296 296 296 296 295 295 294 293 293 292 292 292 291 291 291 291 291 290 289 287 286 287 288 287 287 288 290 291 292 292 292 291 291 291 291 292 293 294 294 293 292 292 291 291 291 291 291 290 290 291 290 290 290 290 290 290 290 290 290 289 289 289
297 297 298 297 297 297 296 295 295 295 295 295 295 295 295 296 296 296 296 296 296 296 296 296 295 296 296 295 295 295 295 294 294 293 292 292 292 291 291 291 291 291 290 288 286 287 288 289 288 288 290 291 291 291 291 291 291 291 290 289 289 291 293 293 293 292 292 292 291 291 291 291 290 290 290 290 290 290 290 290 290 290 290 289 289 289 288
Wind_Speed
4 5 5 6 5 4 5 6 6 7 7 8 8 1 4 0 2 4 7 9 7 6 7 6 7 10 10 10 9 8 7 8 8 9 10 10 10 11 11 11 11 11 10 9 10 15 20 20 17 15 15 16 16 17 16 17 17 19 23 26 26 26 27 28 27 26 24 22 21 19 18 16 14 13 13 13 12 12 13 15 16 15 14 13 13 13 13
6 7 6 6 6 4 5 7 8 8 6 6 7 3 1 4 3 4 10 10 4 4 6 6 9 11 10 10 9 8 9 9 8 9 10 10 9 10 11 10 10 10 10 11 12 16 23 24 18 15 17 17 19 21 19 17 16 18 22 22 19 18 20 21 20 18 19 19 18 17 15 13 13 14 14 13 14 13 13 13 15 15 15 13 13 13 13
4 6 6 6 5 6 6 8 11 12 10 6 6 5 4 6 6 7 11 9 5 4 6 10 11 10 10 10 8 7 8 8 9 11 10 8 8 9 9 9 9 9 10 12 14 17 24 27 23 19 19 20 21 21 20 19 19 19 19 18 17 18 19 18 16 15 15 13 12 13 13 13 13 12 12 13 14 13 11 11 13 16 15 14 14 13 12
1 4 5 5 4 5 7 9 11 12 9 5 4 3 2 3 7 10 9 6 3 3 6 10 11 10 11 10 8 6 6 8 10 11 10 9 7 7 8 8 9 9 10 11 14 19 25 28 27 23 22 23 24 23 23 23 24 25 24 23 24 22 19 18 17 16 15 13 12 11 11 10 9 8 8 9 9 9 7 6 8 12 14 14 14 14 13
1 3 3 3 3 3 3 5 7 6 5 4 5 4 4 2 5 8 5 4 5 6 8 11 10 9 9 8 6 4 4 7 10 10 10 9 7 6 7 8 8 9 9 10 16 24 27 28 27 25 24 25 25 24 25 27 29 31 30 29 29 26 22 22 21 19 18 17 16 14 13 11 11 12 11 9 8 7 5 4 3 4 7 9 11 12 12
0 3 1 1 1 1 2 2 3 3 4 3 3 4 5 5 4 5 5 7 7 6 8 11 11 8 7 5 5 4 3 4 8 8 8 8 7 6 7 7 7 8 10 14 20 25 26 26 26 27 27 27 26 27 29 30 31 33 33 33 32 30 27 26 25 25 23 22 22 21 19 18 16 14 11 7 6 4 3 3 4 3 2 3 5 6 6
1 2 2 3 2 1 2 1 2 3 2 2 4 6 7 6 8 11 10 9 9 8 9 10 11 10 8 7 7 6 4 3 6 8 7 7 7 7 7 7 8 10 13 16 19 22 23 23 25 26 28 29 30 31 32 32 32 32 33 34 34 32 31 29 28 27 26 25 26 25 23 22 20 18 15 12 10 7 6 4 3 1 1 2 3 4 4
1 1 2 2 1 0 1 0 3 4 3 3 4 6 7 6 5 11 10 7 8 11 11 10 11 11 9 7 7 6 5 4 5 6 7 7 7 7 8 9 11 13 15 15 17 21 22 22 23 24 26 27 28 30 32 32 32 32 32 33 33 32 32 30 29 28 26 25 25 24 23 21 20 20 17 15 13 11 10 9 7 4 2 2 3 4 5
2 2 1 1 1 1 1 2 3 3 1 2 2 2 4 4 3 7 10 9 8 10 11 11 12 11 10 8 6 6 5 4 4 6 8 9 10 10 12 13 14 16 17 17 18 22 24 23 22 21 22 23 26 29 30 30 31 32 33 32 32 31 31 30 29 27 26 25 25 24 23 23 22 20 17 15 14 12 11 10 10 8 7 7 6 5 3
1 3 2 1 1 1 1 1 3 3 2 2 1 1 2 2 3 4 10 12 9 9 10 9 9 7 7 7 3 2 2 2 4 7 10 12 14 14 14 14 15 17 19 19 20 22 24 23 20 19 20 23 27 29 29 28 29 30 30 29 27 28 28 27 27 26 24 23 23 22 22 22 22 20 18 16 15 13 11 11 10 9 9 8 7 7 5
2 3 3 1 1 1 2 4 5 4 3 3 2 2 1 2 5 4 8 12 11 9 9 6 4 3 5 4 3 3 2 2 3 6 8 11 14 14 14 15 16 17 18 19 19 20 21 20 20 20 21 25 27 28 27 28 29 29 28 26 24 22 22 22 22 23 23 22 22 21 20 19 18 17 17 16 14 13 12 11 11 10 9 8 8 8 7
2 3 2 1 1 1 3 5 8 6 3 4 3 1 1 2 6 5 6 10 10 9 7 3 2 4 5 5 5 4 4 5 6 8 9 10 12 13 14 16 17 18 18 19 19 19 19 18 19 21 23 27 28 27 27 29 29 27 26 24 22 21 20 19 20 21 21 20 20 19 17 16 14 13 13 14 14 14 13 12 11 10 10 9 9 8 8
3 3 2 1 1 2 3 6 9 8 2 2 3 1 3 1 6 6 5 6 6 5 5 3 2 2 4 7 6 5 5 7 9 12 14 15 15 15 15 16 18 18 18 19 19 19 19 18 19 22 26 28 28 27 28 28 26 23 21 20 19 19 19 19 20 19 18 17 16 15 14 13 12 11 12 12 13 13 13 12 11 10 10 10 9 8 8
3 2 2 1 1 1 5 8 9 5 1 1 2 3 2 2 6 6 4 4 4 3 3 4 5 5 6 8 8 6 6 7 8 12 16 17 16 16 16 16 17 18 18 18 19 19 19 20 21 24 27 29 27 27 27 25 22 20 19 18 18 18 18 18 18 17 16 14 14 13 13 12 12 12 11 11 11 11 11 11 10 10 10 10 10 9 9
2 2 3 2 1 2 7 9 6 3 2 2 3 2 3 4 7 7 5 3 3 5 5 6 8 9 8 8 7 7 7 7 9 13 15 15 16 16 16 14 15 16 16 17 18 19 19 21 21 23 26 27 26 24 23 20 18 18 17 17 17 17 17 16 15 14 13 12 12 12 13 12 12 12 11 11 10 10 11 11 10 10 11 11 11 11 11
2 2 1 0 2 5 7 5 2 2 1 2 1 3 4 5 5 5 5 4 3 6 8 7 8 8 7 7 7 7 6 7 10 12 14 15 16 17 17 14 13 14 16 17 19 20 21 21 20 20 22 24 23 21 19 17 16 17 17 16 16 16 15 14 13 12 11 12 12 13 13 14 13 13 12 12 11 11 11 11 11 11 12 12 12 13 13
3 3 1 0 2 4 5 4 3 3 4 4 4 7 6 5 4 4 5 5 6 7 8 8 6 6 6 6 7 6 6 7 8 11 13 16 16 17 17 15 12 12 15 18 20 21 20 20 20 19 20 22 21 19 16 16 17 17 17 17 17 16 14 12 12 11 11 12 13 13 14 15 14 14 14 13 12 11 11 11 11 12 12 12 13 13 14
4 4 3 3 2 2 4 5 4 5 6 5 6 9 8 6 5 5 5 6 6 6 7 7 6 5 6 7 7 7 6 6 8 12 14 16 17 17 16 14 12 13 15 18 19 20 19 18 18 18 18 19 19 17 15 16 17 18 18 18 18 17 15 12 11 11 11 12 13 13 14 14 14 14 13 14 13 13 12 11 12 12 12 12 13 14 14
3 2 2 3 3 3 4 6 6 7 7 6 7 9 8 7 7 7 7 7 7 7 7 7 6 5 7 7 7 6 6 6 8 11 13 14 16 16 14 13 12 12 15 17 18 18 17 16 16 16 16 17 17 15 15 16 16 17 18 17 16 15 15 14 13 12 12 12 13 14 14 14 14 14 14 14 14 13 13 13 13 13 13 13 14 15 17
3 1 2 3 4 4 4 4 5 6 6 7 7 8 8 8 8 8 8 9 8 6 7 7 6 6 6 7 7 6 5 6 8 10 11 12 13 13 12 11 10 10 13 15 15 16 16 14 13 14 13 14 14 14 15 15 15 17 18 17 15 14 14 15 15 14 14 14 15 15 15 15 16 16 16 15 14 13 13 13 14 14 15 15 15 16 19
4 2 0 2 5 6 6 4 4 4 5 7 7 7 8 9 8 8 9 9 8 7 7 7 8 7 5 6 8 7 5 7 9 11 11 12 12 11 10 9 9 10 12 13 14 15 14 12 12 12 12 11 12 13 14 14 15 17 18 17 16 15 14 15 16 16 16 17 17 17 16 16 17 17 17 17 16 15 13 12 12 13 14 15 17 19 21
1 2 3 3 4 2 2 2 2 3 4 7 8 7 7 7 7 8 8 8 8 9 8 9 10 8 5 7 10 8 7 8 10 11 11 11 11 11 9 9 11 12 11 11 12 12 12 12 12 12 11 10 10 11 13 13 15 17 18 18 18 16 15 16 16 17 18 19 19 19 18 18 18 19 19 19 16 14 13 11 10 11 14 16 18 19 19
4 6 6 5 4 4 4 4 2 2 3 6 7 6 6 6 6 8 8 7 7 6 7 11 13 9 6 9 11 9 7 9 11 10 10 10 10 10 9 9 11 11 11 10 10 10 11 11 11 11 10 9 8 9 11 12 14 17 19 19 18 17 16 16 16 16 18 20 20 20 18 18 19 21 23 22 17 13 12 12 13 13 13 14 15 15 16
1 2 5 5 4 3 3 4 2 1 2 6 6 5 5 5 6 8 9 8 8 6 5 8 13 14 12 12 12 10 8 9 11 10 9 9 9 9 9 9 9 9 9 8 8 8 8 9 10 10 9 7 5 6 9 11 13 15 17 17 16 16 16 15 15 15 16 18 20 19 19 19 18 20 22 23 22 19 16 15 14 15 14 14 16 17 18
3 3 4 3 4 4 3 2 2 1 3 6 5 4 5 7 9 10 10 9 11 11 8 7 10 14 14 13 13 12 10 9 10 9 9 8 7 7 7 6 5 5 5 4 4 4 5 5 7 9 8 5 4 4 7 9 10 12 13 13 12 13 13 13 14 14 15 17 18 18 18 18 18 18 19 21 22 23 22 19 17 16 17 18 20 21 20
6 6 6 6 6 5 4 4 3 1 4 7 5 3 6 10 12 13 12 12 13 14 14 12 11 13 14 14 14 13 12 11 10 9 8 7 7 6 5 4 3 2 1 1 0 1 1 2 4 7 8 6 3 2 4 6 8 10 11 11 11 12 12 12 12 12 14 15 15 15 15 15 15 15 17 18 19 21 23 23 23 22 22 22 22 21 20
6 7 8 7 5 2 1 2 3 3 5 8 7 5 6 10 12 11 10 11 12 13 13 14 14 14 14 14 14 13 12 12 12 10 10 10 9 8 7 6 5 4 4 4 3 4 3 2 2 3 6 5 2 1 2 5 7 8 9 9 9 10 11 11 11 11 12 13 13 13 14 13 13 14 16 18 18 18 19 22 24 25 26 25 22 20 18
4 4 5 6 4 3 2 4 6 6 6 9 10 9 8 9 10 9 7 7 8 9 9 11 13 14 14 14 14 13 12 13 13 13 12 12 11 9 8 7 6 6 6 6 6 6 6 5 5 4 3 3 1 2 2 4 6 7 8 8 8 9 10 10 10 10 11 12 12 13 13 13 14 15 16 16 16 16 17 18 20 22 23 23 22 20 17
4 4 5 6 7 8 7 7 6 5 5 7 10 11 11 9 7 6 6 6 6 7 8 8 10 12 13 15 15 14 14 14 15 14 13 12 10 9 8 8 7 7 7 7 7 7 7 6 6 4 2 1 1 2 3 4 5 6 8 8 9 10 10 9 9 9 10 11 13 13 13 14 15 15 15 14 14 15 17 17 18 18 19 19 21 22 20
1 1 4 5 6 8 8 6 5 5 4 5 6 7 8 8 7 6 6 6 7 7 8 8 9 10 11 14 15 15 14 15 14 13 12 11 10 10 9 8 7 8 9 9 8 8 8 7 6 5 3 2 1 3 5 5 5 7 8 9 9 10 10 10 9 8 9 11 14 15 15 14 14 14 13 14 14 15 16 15 14 14 15 16 18 21 22
2 4 4 4 5 6 5 4 5 5 4 3 4 4 4 6 7 7 6 6 7 8 9 9 9 10 11 12 13 12 12 12 12 11 11 11 11 11 10 9 8 9 10 10 9 8 8 7 8 7 5 3 3 4 5 5 5 7 8 8 9 10 10 9 7 7 9 12 14 15 14 13 12 12 13 13 14 13 12 12 12 12 12 14 17 18 20
5 5 5 5 4 4 2 2 4 5 3 1 4 5 5 6 6 7 6 7 8 10 10 11 12 12 12 12 11 10 10 10 10 11 11 12 11 11 10 10 9 11 12 11 10 9 8 8 9 8 6 4 5 5 5 5 6 7 8 8 8 10 10 8 6 7 9 12 13 13 12 11 11 11 11 10 10 9 9 10 11 11 12 15 17 16 16
5 3 1 2 2 3 3 3 4 5 4 3 4 6 7 7 7 9 10 11 11 12 14 14 15 15 14 13 11 10 9 9 10 11 11 11 11 10 10 10 10 10 10 10 10 10 8 8 9 8 6 5 5 6 6 7 7 7 8 8 8 9 9 6 5 6 9 11 11 11 11 10 10 9 8 6 6 7 8 9 10 10 13 16 16 14 12
5 4 4 4 3 4 3 1 1 1 1 1 3 5 6 5 5 8 11 13 13 14 16 16 16 16 15 13 10 8 8 9 9 10 10 10 10 9 9 10 10 10 9 8 9 9 8 8 8 8 7 5 5 6 8 8 7 7 8 8 8 9 8 6 5 6 9 9 10 11 12 11 9 6 5 5 6 6 8 10 10 11 13 15 15 12 10
4 3 1 1 3 5 5 3 2 2 2 1 2 5 6 5 5 7 11 14 15 16 17 16 16 17 16 13 11 9 9 9 10 10 9 8 8 8 9 9 10 10 9 8 8 7 6 7 8 8 6 6 6 7 8 8 6 7 8 7 7 9 9 7 6 7 8 9 9 10 12 12 9 5 4 5 6 7 9 10 10 11 13 14 13 12 10
3 4 4 5 7 8 7 6 5 3 2 4 5 6 6 5 4 5 9 13 15 15 15 15 17 18 16 14 11 10 9 9 9 9 8 7 7 8 9 9 9 9 8 6 4 5 6 7 7 7 7 7 8 8 7 7 6 6 6 6 7 8 9 8 8 8 8 9 9 9 9 10 9 4 3 5 7 9 11 11 10 11 12 12 12 12 12
8 9 9 9 10 11 11 10 8 8 7 6 3 4 6 6 4 4 6 9 12 14 15 17 18 18 16 13 11 9 8 8 8 8 7 7 6 8 9 10 9 8 6 3 1 4 6 6 6 6 7 8 8 8 8 7 5 5 5 5 6 8 9 8 9 9 9 9 9 8 7 7 7 4 2 4 7 9 10 9 10 10 10 10 10 12 13
8 10 12 11 10 9 8 6 2 2 6 6 6 7 7 6 5 4 4 6 8 12 16 18 17 16 14 12 11 10 9 8 7 7 7 7 7 9 10 11 10 8 5 2 3 4 6 6 5 5 7 7 8 8 8 6 5 5 5 6 6 7 8 9 9 9 9 8 7 7 6 6 5 3 1 2 5 7 8 8 8 8 9 9 9 10 11
4 6 7 7 6 6 6 4 2 2 5 8 11 12 10 6 5 5 5 6 7 12 16 17 16 14 13 12 12 12 11 9 8 8 8 8 9 10 11 12 11 8 5 4 4 5 6 5 4 4 5 6 9 9 7 6 6 6 7 7 6 6 8 8 8 8 7 6 6 6 5 5 3 2 1 1 3 4 6 7 7 7 7 7 8 9 9
2 2 3 2 2 3 4 4 3 1 3 5 8 9 9 7 6 6 6 6 8 11 14 16 16 15 14 14 14 13 11 9 10 10 9 8 9 10 12 13 10 6 6 6 7 7 7 6 4 4 5 7 8 8 8 7 6 7 8 9 7 5 7 8 7 6 5 4 5 5 5 5 3 3 3 1 1 3 4 5 6 6 6 6 7 8 9
3 4 5 5 5 6 6 4 3 2 2 3 2 2 3 4 5 6 6 6 8 10 13 15 17 17 16 16 15 13 10 9 9 10 10 10 10 10 11 11 7 3 6 9 10 9 8 7 6 6 7 8 8 8 7 6 6 7 9 10 8 5 6 7 5 4 4 3 3 4 5 4 2 3 4 2 1 2 4 5 5 5 4 5 8 10 10
5 6 7 7 8 9 10 10 9 9 8 7 6 4 4 3 3 3 4 4 6 9 13 15 17 18 17 16 15 14 11 9 9 10 11 12 11 11 11 10 6 4 6 10 11 12 11 9 7 8 9 10 9 8 7 7 7 7 10 11 10 6 5 5 4 3 3 2 2 2 4 3 2 3 4 2 1 2 3 3 4 4 5 7 9 10 11
6 8 9 9 9 10 11 11 11 11 12 13 13 11 10 9 7 6 5 4 4 7 12 14 16 17 18 17 15 13 12 11 10 10 11 12 13 13 12 10 6 3 5 7 9 11 11 10 9 9 11 12 11 9 8 8 9 9 11 13 12 7 4 3 2 3 4 3 2 2 2 2 1 3 3 2 1 1 2 2 3 5 6 7 8 9 10
6 9 11 11 11 11 11 11 12 12 13 13 13 12 11 11 9 8 7 6 4 5 9 12 14 16 17 18 16 14 13 12 11 10 10 11 12 13 13 12 10 7 6 7 8 10 10 9 10 10 11 11 10 9 8 9 10 11 13 14 14 9 5 3 3 3 3 3 3 2 1 1 2 3 3 2 2 1 1 2 4 5 5 6 7 8 8
6 6 8 10 11 12 12 12 13 13 14 15 15 13 11 9 7 7 7 8 7 7 7 9 11 13 15 16 17 16 16 14 11 10 10 10 10 10 9 9 10 12 12 12 11 11 11 10 10 10 10 10 9 9 9 10 10 11 13 15 15 12 8 6 5 3 2 3 4 4 3 2 2 3 2 2 2 2 1 2 4 5 5 5 6 6 7
7 6 6 7 9 11 12 13 14 15 15 14 15 16 15 11 7 7 7 8 8 9 8 8 9 11 12 13 15 17 17 16 14 12 12 12 11 10 8 6 8 11 13 15 15 13 12 11 11 11 11 11 11 10 10 10 10 11 13 16 17 13 10 8 7 5 4 4 4 5 4 4 3 3 2 2 2 1 1 2 3 4 5 4 5 5 6
8 8 8 7 8 8 8 9 11 12 12 10 11 15 15 12 8 7 7 6 6 8 9 9 10 10 10 10 12 14 17 17 15 14 14 14 13 12 10 8 6 7 9 14 16 14 11 10 11 12 12 11 11 10 11 10 9 10 13 17 17 15 12 10 9 8 6 6 5 5 5 5 4 4 3 3 3 3 2 3 4 5 5 5 5 5 5
9 10 10 8 6 5 6 6 8 10 11 11 12 14 14 12 9 7 5 4 4 6 8 8 9 9 9 9 10 12 14 16 14 12 12 13 12 12 11 9 6 5 6 9 13 13 11 10 11 12 12 11 10 10 10 9 9 10 13 16 18 16 14 12 11 10 9 8 7 6 5 5 4 5 5 4 4 4 3 2 3 4 4 5 5 5 4
8 9 8 5 4 4 6 7 9 10 11 12 13 13 11 10 8 7 5 4 5 7 8 9 9 9 9 9 8 9 12 15 15 13 10 9 9 10 9 8 7 6 6 8 11 11 11 10 11 11 11 11 10 11 10 9 8 8 11 15 17 17 16 14 13 11 10 9 8 7 6 5 5 5 6 5 5 5 5 4 3 2 3 4 5 5 5
8 7 6 5 4 5 5 6 8 9 10 12 13 13 10 8 7 7 6 5 6 6 7 7 8 8 8 7 7 7 9 12 15 15 12 9 8 8 8 8 7 7 7 8 10 10 10 10 10 10 10 10 11 12 11 9 7 7 8 11 15 17 18 16 15 13 12 11 10 9 8 7 6 6 6 6 5 5 6 7 6 5 5 5 5 5 5
8 7 5 4 4 4 5 6 7 7 7 7 8 9 7 6 6 7 7 6 5 6 7 7 7 8 8 7 7 7 8 9 11 12 13 11 9 7 7 8 8 8 8 8 9 9 9 9 8 9 9 10 11 12 12 9 7 7 8 10 12 16 18 18 17 15 14 12 12 11 10 9 9 8 8 8 6 6 7 8 8 8 8 7 6 6 5
5 4 3 3 3 4 5 5 4 0 3 6 6 4 2 2 4 6 7 7 7 9 9 8 8 8 7 7 7 7 7 7 8 10 11 11 10 9 9 9 10 9 8 8 7 8 9 9 8 9 10 9 10 12 12 9 7 8 9 9 11 14 16 18 18 17 15 13 13 13 12 11 10 10 10 9 9 8 8 9 10 10 9 8 7 6 6
Wind_Direction
24 18 18 30 51 71 48 23 11 11 26 56 67 7 274 254 147 190 173 154 147 146 146 129 107 107 103 95 96 101 100 90 87 86 75 61 49 44 44 40 35 37 33 23 19 25 33 40 50 70 91 102 106 117 142 162 169 169 167 168 173 175 176 183 194 197 191 188 188 192 197 197 195 199 205 208 209 209 208 207 211 219 224 225 228 232 233
29 13 13 41 58 65 38 19 10 3 14 68 81 51 6 76 96 139 134 125 98 90 112 95 88 99 99 95 97 99 98 96 91 85 77 69 62 56 52 45 38 35 31 26 23 28 34 35 36 53 73 87 95 104 123 141 147 154 161 165 166 163 164 175 187 188 186 189 189 188 190 191 194 200 206 213 216 215 213 210 213 219 225 231 237 239 238
31 14 16 30 57 79 52 17 6 2 2 30 56 42 42 66 80 101 110 105 69 51 89 92 90 94 95 94 91 89 97 102 95 87 79 71 67 61 55 50 43 38 33 31 29 31 35 36 36 42 58 72 81 89 101 109 116 129 137 135 130 136 149 160 167 172 179 185 180 177 182 192 198 203 211 217 217 216 216 217 219 221 227 234 236 236 239
346 1 11 357 15 67 55 20 1 354 355 0 356 350 10 93 118 120 114 111 119 115 101 96 91 89 91 92 85 77 93 100 93 91 86 74 63 57 55 52 47 44 38 32 34 39 40 41 42 44 53 65 70 75 83 88 94 104 107 104 106 115 128 135 139 147 153 154 153 156 168 182 184 178 178 180 179 182 191 206 219 226 232 237 235 232 236
288 333 353 339 356 31 22 355 346 329 319 317 319 337 2 29 126 138 140 136 141 141 120 103 93 88 90 92 88 77 82 94 92 91 91 83 66 53 55 53 50 51 46 41 47 50 49 48 48 50 56 62 65 69 76 80 84 88 88 87 90 95 101 109 115 119 124 126 125 124 127 130 139 153 156 145 135 132 130 130 143 185 215 228 231 230 234
246 319 14 111 81 122 226 287 309 289 295 323 353 19 16 24 87 107 104 111 120 124 114 107 102 93 77 69 78 76 60 88 96 93 93 91 78 61 55 52 51 53 53 55 56 56 56 57 57 59 62 64 66 68 72 74 75 76 77 77 78 79 80 84 90 97 102 105 103 103 105 106 113 128 133 120 113 106 89 107 118 123 169 207 215 220 229
95 351 66 123 162 170 179 224 310 308 314 34 78 65 34 43 97 100 96 107 115 105 96 98 98 89 70 53 55 53 32 57 94 96 91 88 83 72 62 56 53 51 52 57 59 58 57 59 61 62 63 64 66 67 66 67 67 67 69 70 69 69 68 67 71 77 82 85 85 87 91 94 94 95 95 92 87 76 68 80 92 97 285 276 258 255 263
107 16 43 127 172 345 155 131 356 354 2 18 47 58 33 19 86 105 102 99 101 102 101 100 98 95 88 72 50 34 21 30 74 96 94 85 79 73 69 66 59 53 51 53 60 63 61 59 60 62 63 64 65 65 64 64 63 63 63 63 62 62 61 60 61 65 68 70 71 72 76 80 79 77 77 78 74 70 73 75 75 81 69 7 335 304 281
130 113 34 8 62 26 28 24 354 346 344 337 352 56 38 11 52 108 115 112 106 111 113 112 115 112 95 74 42 11 12 29 64 92 94 90 86 81 77 72 65 62 61 60 64 68 65 59 56 56 58 60 63 64 62 61 61 61 60 59 58 58 58 57 58 59 61 63 62 62 63 64 63 61 61 60 57 54 57 60 59 58 54 42 29 11 318
108 113 90 21 36 36 359 295 277 264 236 225 184 90 31 45 73 109 124 124 122 124 124 130 142 128 85 74 64 342 355 55 85 93 93 94 94 89 82 76 71 71 73 71 73 75 73 67 63 61 62 65 66 63 60 60 60 60 60 58 56 56 56 56 55 54 52 52 52 52 53 53 52 50 49 47 44 41 41 42 42 39 36 34 32 25 7
67 100 108 97 128 197 288 292 286 277 235 204 154 86 18 125 137 144 134 133 137 138 139 156 170 124 86 100 161 195 182 132 100 97 95 94 94 90 84 81 77 76 78 79 80 81 80 78 79 79 77 74 71 67 65 67 66 65 65 62 58 57 56 53 53 52 48 45 44 42 40 40 39 38 39 38 35 32 32 31 30 26 20 18 19 13 3
65 90 95 85 151 231 306 316 312 302 226 168 119 80 303 140 143 155 149 144 144 139 138 143 107 103 125 151 172 178 154 113 91 89 92 93 94 93 90 88 83 80 79 78 76 74 75 78 82 85 83 80 77 74 73 72 70 68 67 65 61 58 55 50 49 48 45 43 42 42 39 35 29 24 24 23 21 21 21 20 19 15 12 13 13 8 359
40 67 88 29 278 272 314 321 312 305 275 133 109 206 257 141 127 139 145 141 133 127 140 147 100 96 129 132 137 140 120 100 88 85 87 89 93 97 99 94 86 81 80 78 74 69 68 74 82 86 85 82 79 77 75 72 70 67 65 61 57 53 49 45 43 42 40 40 39 41 40 36 32 28 24 19 15 15 16 16 15 11 8 6 3 1 356
30 60 86 27 252 267 339 327 309 310 4 172 227 262 276 118 120 120 112 114 112 111 127 126 110 103 102 108 116 115 106 100 91 85 85 85 86 91 96 93 84 79 80 78 74 71 73 82 89 89 86 83 79 76 75 73 69 64 59 54 51 49 46 44 42 41 40 39 39 38 35 31 30 33 32 26 21 17 14 13 14 14 9 2 355 350 346
52 53 43 35 208 306 340 333 322 4 68 216 244 320 17 77 102 99 85 77 102 115 105 95 100 103 99 101 105 99 96 98 92 88 86 83 81 79 82 87 86 82 78 75 75 80 88 92 91 88 85 84 81 79 78 75 68 60 54 49 46 44 44 44 43 42 40 38 38 36 32 27 25 24 23 22 21 20 16 13 12 8 4 1 354 346 340
59 72 52 73 251 301 328 344 22 51 351 268 166 80 53 56 75 91 87 61 60 98 101 94 96 100 98 99 99 93 94 96 90 89 87 84 79 72 70 78 85 81 78 78 82 90 96 95 91 87 85 85 83 82 80 74 63 55 50 45 42 42 45 46 45 44 40 36 33 29 24 21 18 17 16 13 11 11 10 9 8 4 360 356 351 347 342
80 110 144 245 282 302 335 20 57 56 34 27 70 91 83 59 52 76 91 77 62 79 95 94 89 92 94 92 89 88 90 89 87 87 83 78 76 70 65 69 76 79 81 85 87 88 91 91 88 85 83 83 84 84 78 66 55 50 47 46 47 49 51 52 49 45 38 34 31 27 25 24 23 23 22 17 13 11 6 3 2 359 355 351 346 343 340
68 62 38 9 349 358 39 45 40 54 60 54 71 85 84 75 69 71 83 90 82 81 94 96 89 93 99 93 88 87 85 79 78 78 73 67 66 65 60 58 67 82 90 91 89 87 87 86 84 80 75 75 77 77 69 57 50 48 48 50 54 55 54 49 45 40 36 35 33 30 28 27 26 24 20 15 12 10 7 3 1 356 351 347 343 338 335
73 55 359 352 3 24 55 64 59 54 57 62 76 88 93 95 94 89 88 90 84 78 87 94 96 101 103 96 87 80 78 75 72 73 72 65 60 59 56 52 60 84 95 93 90 87 86 85 82 77 72 69 68 64 56 47 42 41 42 45 49 52 50 45 42 39 36 33 29 26 25 24 21 17 13 8 4 1 359 355 351 349 346 343 342 338 334
77 122 275 337 14 13 12 53 81 80 76 76 78 90 102 100 96 96 96 95 95 89 89 96 97 91 91 97 97 88 81 84 83 81 81 73 63 58 52 49 61 89 100 96 90 86 85 82 77 73 69 65 60 52 44 38 35 34 35 36 38 38 38 36 34 30 26 21 17 16 17 17 14 10 6 3 359 356 354 348 341 339 338 337 338 336 332
63 65 334 20 45 25 360 17 69 84 96 99 91 90 96 95 95 94 88 87 98 109 117 119 110 98 93 105 108 105 99 99 97 93 87 77 69 62 53 54 79 103 106 102 95 87 80 75 69 65 59 52 46 39 33 30 28 28 28 29 30 29 28 27 24 21 19 16 12 10 9 9 8 5 360 356 351 347 346 345 340 336 332 329 331 330 326
116 225 203 160 110 82 296 300 36 43 83 102 99 92 92 95 101 102 91 81 84 94 107 115 113 107 112 115 111 110 113 111 106 99 91 80 74 72 71 78 96 105 104 101 97 85 73 65 60 54 44 34 29 27 25 23 23 23 21 21 23 25 23 20 16 15 15 12 6 3 1 1 360 355 351 350 349 347 345 344 338 332 326 325 327 327 323
219 217 192 168 137 153 217 242 291 343 52 88 93 93 97 104 114 115 109 99 87 76 87 109 116 120 129 126 119 113 112 112 108 101 95 90 84 85 91 93 94 93 93 95 93 80 66 56 49 43 35 24 18 19 21 21 20 18 15 15 17 18 15 10 8 9 9 5 1 357 355 355 354 350 349 351 355 357 355 347 338 333 329 327 330 332 328
187 168 171 177 150 144 194 219 237 302 64 92 99 100 103 117 134 131 125 125 128 120 100 111 123 131 137 136 131 124 119 120 118 114 113 113 109 107 108 104 96 88 83 83 83 73 59 47 38 33 25 11 3 11 15 16 16 13 12 14 15 13 7 1 359 359 358 357 356 353 350 348 347 348 350 351 350 351 353 350 342 339 339 340 341 342 339
105 106 150 159 118 106 115 112 92 80 110 114 119 128 134 147 153 147 141 142 144 141 133 123 130 138 144 145 140 136 138 142 140 136 134 133 133 131 127 121 112 95 76 71 73 65 51 37 28 25 21 11 11 15 8 8 11 9 11 17 17 10 3 357 351 349 349 348 349 349 346 342 340 343 347 345 341 341 343 345 345 345 346 347 347 345 344
113 111 98 79 80 99 111 98 89 134 138 125 116 120 145 158 164 161 157 156 153 149 146 144 144 149 155 156 151 149 153 160 162 164 163 164 171 176 175 178 183 186 189 182 160 11 17 15 11 16 20 18 12 358 352 360 7 5 9 18 16 4 355 346 340 342 345 344 343 342 340 337 335 335 337 335 334 334 336 338 341 343 344 346 348 347 345
122 122 105 85 73 65 95 132 149 160 137 124 116 107 123 146 155 156 153 155 157 156 154 151 150 154 160 164 161 162 169 175 178 183 190 197 206 212 212 214 217 220 230 243 251 261 273 279 291 340 9 11 345 277 320 351 359 1 5 12 9 358 348 336 331 338 345 346 345 342 339 339 338 334 332 332 333 335 335 335 335 335 335 339 344 347 346
126 125 110 118 149 183 182 148 147 145 131 127 128 125 125 132 139 142 147 159 169 171 166 157 154 156 161 167 170 174 182 187 190 195 202 207 212 213 212 216 222 230 241 251 254 256 259 253 248 267 348 14 341 238 299 335 346 352 357 358 355 351 346 335 328 335 346 350 348 345 343 341 336 331 331 333 334 336 336 334 330 328 331 336 341 345 351
148 143 128 142 159 156 140 133 143 157 157 145 140 140 138 134 133 152 173 181 181 177 170 166 169 171 172 176 181 184 188 193 199 204 208 212 214 214 217 224 231 239 247 253 259 262 262 253 245 249 289 12 232 242 272 302 326 337 340 342 342 342 340 333 327 334 349 353 346 338 334 330 326 325 328 331 333 334 333 331 330 331 335 342 345 348 355
289 99 119 133 136 131 133 149 169 184 185 159 140 141 144 143 152 184 201 196 187 186 185 184 186 185 184 188 193 195 198 202 207 210 213 218 222 225 228 233 240 247 253 258 266 268 263 254 248 251 262 263 240 248 260 276 306 323 325 328 333 334 334 334 332 335 346 347 339 331 327 325 323 324 327 329 332 335 335 336 342 346 349 354 354 350 352
3 24 67 97 109 121 144 187 202 203 204 168 142 143 141 141 157 185 201 198 196 196 195 191 190 192 194 196 197 197 201 207 213 218 222 226 229 233 239 247 255 262 266 267 267 262 254 245 242 249 257 251 237 248 259 266 287 309 315 318 323 327 332 337 335 335 341 342 337 332 330 331 330 329 329 331 335 340 345 354 4 7 6 3 359 352 349
71 37 48 65 76 93 113 230 231 227 235 173 153 174 176 162 166 179 183 190 196 191 184 186 192 194 191 185 182 186 197 211 224 231 234 236 237 241 248 256 263 270 274 272 265 257 248 237 236 242 249 243 236 247 262 265 276 298 311 314 315 322 331 335 328 329 338 342 341 338 337 338 337 334 334 340 349 359 10 15 16 16 11 1 354 351 350
101 91 102 121 111 120 157 222 224 214 213 204 204 213 205 188 183 183 178 179 181 179 181 189 193 190 181 174 178 190 207 223 235 243 245 245 245 243 247 256 264 271 275 273 265 256 244 230 231 238 241 236 235 246 256 259 271 293 307 311 312 319 326 325 314 321 331 338 345 349 346 343 342 343 350 11 30 30 23 17 10 8 7 1 357 356 356
175 197 217 216 176 141 150 194 304 352 320 299 253 229 213 203 203 193 180 173 173 180 191 196 192 184 178 178 187 204 217 230 247 259 260 256 250 245 249 259 267 273 280 280 269 255 234 222 231 238 233 227 241 255 254 252 266 291 304 307 309 316 318 308 295 309 321 331 346 356 352 348 353 8 34 49 45 28 18 15 9 6 8 9 8 8 7
220 220 249 196 142 128 133 148 161 168 171 198 235 222 208 204 205 192 184 183 187 194 200 198 188 182 183 187 197 213 226 243 265 277 275 266 256 251 254 260 266 274 285 287 272 249 222 216 229 234 225 231 257 265 253 245 261 291 303 301 301 311 312 297 283 293 305 317 336 350 350 349 355 21 61 53 34 25 23 18 11 11 15 14 12 12 13
112 117 96 96 106 104 92 67 33 350 258 225 219 207 192 189 195 198 200 204 207 207 203 194 185 184 187 193 204 219 236 258 273 276 271 267 259 255 258 260 263 276 295 300 266 224 209 212 220 223 228 250 268 264 246 241 259 287 295 286 292 310 312 295 282 283 288 295 312 328 339 344 347 360 50 46 32 29 25 18 14 17 17 9 6 11 17
84 91 83 78 82 86 85 75 50 9 337 313 273 212 191 194 211 227 226 223 221 215 204 193 187 189 194 202 215 229 243 260 270 269 264 262 260 260 261 261 263 276 296 304 204 180 186 195 206 223 245 265 268 252 234 236 257 279 280 270 284 313 318 302 287 283 279 282 295 308 321 335 339 338 17 37 31 27 22 17 20 20 10 1 7 17 23
84 88 89 85 81 83 93 108 122 312 317 306 272 243 226 219 223 229 234 236 228 215 204 198 196 199 203 210 224 236 244 253 259 257 250 248 256 262 264 264 267 272 274 247 176 170 181 192 216 255 268 264 247 230 225 237 258 266 264 260 276 313 325 314 296 285 280 281 293 305 318 334 332 316 320 31 30 31 26 22 25 21 8 7 21 29 31
102 105 108 106 104 108 111 115 134 291 297 275 249 234 223 216 216 218 224 233 227 214 206 203 202 204 208 217 231 242 247 249 251 252 248 246 253 262 269 274 274 268 251 219 193 188 193 204 233 270 262 233 218 221 234 255 263 257 251 250 265 306 326 321 305 292 284 283 293 309 330 343 327 270 202 57 28 36 35 29 31 29 18 20 35 43 46
167 178 187 200 202 183 153 125 114 78 328 293 260 236 222 220 222 218 214 219 221 217 212 208 205 207 214 224 235 246 253 252 251 253 253 254 256 263 274 281 278 254 226 216 203 198 206 218 225 233 227 217 223 242 257 260 257 250 243 241 253 293 320 320 310 296 284 283 296 315 335 341 310 232 193 175 26 40 42 37 41 43 35 38 55 64 65
239 236 238 245 239 223 212 209 222 252 302 323 316 293 262 248 240 230 225 229 230 225 219 214 214 217 222 229 237 248 259 261 257 254 253 256 258 260 269 281 288 253 225 225 216 211 219 226 221 224 230 233 246 264 260 242 240 245 238 233 241 276 311 317 309 284 271 284 307 321 333 334 290 210 181 161 65 47 47 45 53 65 71 75 79 81 82
241 234 234 242 245 240 236 239 249 263 270 270 271 286 305 304 287 267 260 258 245 232 225 223 225 229 231 235 242 249 256 262 260 253 249 254 260 261 267 283 299 277 245 239 227 220 226 232 235 239 242 244 257 269 253 230 237 252 241 230 232 254 293 308 298 258 243 261 292 319 335 335 272 195 176 149 81 54 52 54 70 86 96 99 96 93 93
252 240 237 242 252 260 260 258 257 262 269 270 267 267 270 275 282 289 295 293 258 232 229 231 233 235 236 238 243 249 253 256 256 253 252 256 259 260 265 275 284 269 246 240 227 221 228 242 254 255 248 246 255 265 251 232 240 254 245 229 225 234 262 285 269 232 230 243 249 265 316 327 235 190 176 155 114 78 69 80 91 94 98 104 105 102 101
267 253 251 257 266 275 279 275 270 270 274 277 277 276 274 272 270 270 272 278 277 252 239 238 239 239 237 237 239 244 248 247 244 245 252 257 261 263 264 262 253 235 224 225 226 228 238 256 264 255 242 237 246 258 249 235 241 253 245 227 217 219 232 240 223 214 225 229 214 202 206 215 192 186 181 172 169 161 132 115 111 108 107 108 109 106 105
291 272 262 264 268 270 270 270 271 272 275 280 285 288 285 279 273 269 268 268 272 275 266 252 245 241 238 238 240 245 248 248 245 245 247 253 264 278 282 273 257 243 232 228 231 237 246 257 257 242 229 232 248 258 251 240 244 251 240 221 211 212 218 213 199 189 190 189 185 180 168 146 147 162 177 187 192 188 164 134 123 121 121 117 110 107 107
297 292 278 267 265 265 265 267 269 272 277 281 283 283 281 278 276 279 278 267 263 273 283 280 265 253 247 246 246 247 246 247 249 253 254 255 263 276 288 289 277 261 244 235 234 239 246 252 247 234 231 243 258 259 248 241 244 244 231 215 208 209 212 205 194 180 164 162 173 178 172 157 147 154 176 196 195 184 172 153 140 138 140 137 124 114 112
292 293 294 288 281 276 273 270 269 271 274 272 272 277 282 284 281 282 285 279 269 277 287 287 277 265 257 254 252 249 246 244 247 255 260 260 262 267 268 267 276 277 257 242 238 240 244 246 240 236 239 251 257 249 238 234 234 231 222 214 210 211 212 206 197 185 172 161 159 162 162 161 158 162 175 185 179 173 184 189 178 170 168 162 146 130 122
295 298 304 303 289 273 268 264 261 263 266 265 268 276 286 293 292 289 292 293 289 292 295 289 277 266 261 259 258 256 251 247 248 259 269 269 266 266 264 257 261 281 271 246 237 237 238 237 236 239 246 251 247 234 225 222 220 220 220 218 216 216 214 210 203 194 185 177 170 164 161 161 159 158 158 157 156 159 169 184 185 184 181 174 164 153 143
297 299 309 309 279 259 262 262 260 264 270 275 276 279 285 290 290 290 292 291 289 293 295 288 274 263 259 260 262 261 255 247 244 251 268 280 280 274 266 257 260 277 274 251 239 238 237 236 240 244 246 242 230 219 213 211 211 216 222 224 225 224 223 219 212 204 197 192 188 183 180 183 183 175 165 156 155 162 163 158 155 170 192 193 186 179 172
296 296 302 302 285 269 258 256 263 273 283 288 287 284 280 275 272 276 287 293 285 281 285 281 263 245 241 251 261 266 264 254 245 242 249 266 280 278 263 254 260 274 278 267 255 244 235 235 241 240 233 224 216 210 209 210 213 219 227 231 232 231 229 225 219 212 207 204 202 201 200 203 205 197 184 176 178 187 189 186 181 184 196 206 204 195 184
293 289 292 296 290 276 265 266 273 283 297 309 305 292 279 270 275 288 300 298 274 262 268 268 249 234 235 246 254 258 262 260 249 240 241 251 265 268 257 251 255 264 273 276 265 241 228 232 235 225 214 211 210 207 208 214 228 245 253 248 239 234 232 228 222 218 216 215 215 214 213 213 213 208 201 196 199 208 213 212 210 209 210 212 209 202 193
285 285 299 301 284 270 267 265 262 270 60 52 46 41 36 7 331 320 314 296 266 255 259 263 258 251 255 262 258 252 254 261 258 249 245 248 254 254 248 247 250 254 263 270 259 235 227 231 227 213 207 209 208 205 208 220 241 259 265 256 240 233 234 232 227 223 223 224 224 224 224 225 224 220 214 210 211 215 217 218 218 220 219 216 214 216 217